Location: Guferjoch
(46.7462°N, 8.4506°E)
Time: 12:14:16
(UTC+00:00)

Aureole 1 Rocket - Pass Details

Date: 14 July 2020
Orbit: 377 x 1380 km, 73.9° (Epoch: 06 August)

Event Time Altitude Azimuth Distance (km) Brightness Sun altitude
Exits shadow 02:25:54 14° 238° (WSW) 1,849 4.9 -11.2°
Maximum altitude 02:29:40 40° 304° (NW) 1,160 4.4 -10.8°
Drops below altitude 10° 02:35:29 10° 13° (NNE) 2,728 7.4 -10.1°
Sets 02:38:36 0° 20° (NNE) 3,856 8.5 -9.7°
